This is the latest recevied weather packets stored in our database for station/object CE3RCJ-14. If no packets are shown the sender has not sent any weather packets the latest 10 day(s).
| Time | Temp. | Humidity | Pressure | Rain* | Wind** | Luminosity | Snow |
|---|---|---|---|---|---|---|---|
| 1777672984 | 16.11° C | 60% | 1021 hPa | - | - | - | - |
| 1777672384 | 16.11° C | 60% | 1021.1 hPa | - | - | - | - |
| 1777670583 | 16.11° C | 60% | 1021.3 hPa | - | - | - | - |
| 1777669997 | 16.11° C | 60% | 1021.3 hPa | - | - | - | - |
| 1777668782 | 16.67° C | 59% | 1021.1 hPa | - | - | - | - |
| 1777668494 | 16.67° C | 59% | 1021.2 hPa | - | - | - | - |
| 1777666689 | 16.11° C | 60% | 1021.2 hPa | - | - | - | - |
| 1777665782 | 15.56° C | 61% | 1021.2 hPa | - | - | - | - |
| 1777661582 | 15.56° C | 61% | 1020.5 hPa | - | - | - | - |
| 1777661302 | 15.56° C | 62% | 1020.5 hPa | - | - | - | - |
| 1777659485 | 15.56° C | 62% | 1020.1 hPa | - | - | - | - |
| 1777657085 | 16.11° C | 60% | 1019.8 hPa | - | - | - | - |
| 1777655881 | 15° C | 61% | 1020.3 hPa | - | - | - | - |
| 1777654697 | 14.44° C | 63% | 1021 hPa | - | - | - | - |
| 1777650782 | 13.89° C | 64% | 1021.3 hPa | - | - | - | - |
| 1777650185 | 13.89° C | 64% | 1021.2 hPa | - | - | - | - |
| 1777649884 | 13.89° C | 63% | 1021 hPa | - | - | - | - |
| 1777648697 | 13.89° C | 63% | 1020.8 hPa | - | - | - | - |
| 1777648377 | 13.89° C | 63% | 1020.9 hPa | - | - | - | - |
| 1777647182 | 13.89° C | 64% | 1021.2 hPa | - | - | - | - |
| 1777646884 | 13.89° C | 64% | 1021.4 hPa | - | - | - | - |
| 1777646582 | 13.33° C | 64% | 1021.5 hPa | - | - | - | - |
| 1777645382 | 12.78° C | 66% | 1021.9 hPa | - | - | - | - |
| 1777644204 | 12.78° C | 66% | 1021.6 hPa | - | - | - | - |
| 1777639681 | 12.22° C | 66% | 1021.1 hPa | - | - | - | - |
* Rain since midnight (hover to see other rain measurements)
** Current wind speed in m/s (hover to see current wind gust speed)